Location: Unspecified
(7.8830°N, 0.0000°E)
Time: 06:32:19
(UTC+00:00)

ISS - Visible Passes

Search period start: 22 April 2019 00:00
Search period end: 02 May 2019 00:00
Orbit: 408 x 410 km, 51.6° (Epoch: 22 April)

Date Brightness Start Highest point End Pass type
(mag) Time Alt. Az. Time Alt. Az. Time Alt. Az.
22 Apr -3.8 05:07:42 12° SW 05:10:41 66° NW 05:13:56 10° NNE visible
23 Apr -2.8 04:19:48 41° SE 04:19:57 41° SE 04:23:04 10° NE visible
24 Apr -1.9 05:04:34 14° WNW 05:05:35 16° NW 05:07:39 10° NNW visible
25 Apr -1.8 04:16:23 22° N 04:16:23 22° N 04:17:52 10° NNE visible
